Regional Weather Roundup
Issued by NWS

Home | Current Version | Previous Version | Text Only | Print | Product List | Glossary On
Versions: 1 2 3 4 5 6 7 8 9 10 11 12 13 14 15 16 17 18 19 20 21 22 23 24 25 26 27 28 29 30 31 32 33 34 35 36 37 38 39 40 41 42 43 44 45 46 47 48 49 50
000
ASUS43 KMKX 281921
RWRWI

WISCONSIN REGIONAL WEATHER ROUNDUP
NATIONAL WEATHER SERVICE MILWAUKEE/SULLIVAN WI
200 PM CDT THU APR 28 2016

NOTE: "FAIR" INDICATES FEW OR NO CLOUDS BELOW 12,000 FEET WITH NO
SIGNIFICANT WEATHER AND/OR OBSTRUCTIONS TO VISIBILITY.

WIZ001-002-006>008-014>016-023>028-282000-
NORTHWEST WISCONSIN

CITY           SKY/WX    TMP DP  RH WIND       PRES   REMARKS
SUPERIOR ARPT  CLOUDY    42  33  70 NE21G28   30.11S
ASHLAND        CLOUDY    44  35  70 NE17G28   30.10S
HAYWARD        CLOUDY    53  24  32 VRB5      30.02S
SIREN          CLOUDY    52  22  31 NE8       30.02S
CUMBERLAND     CLOUDY    48  23  37 SE6       30.01S
RICE LAKE      CLOUDY    50  22  33 E10       30.02S
CHETEK         CLOUDY    46  34  63 CALM      30.01S
LADYSMITH      CLOUDY    51  23  33 E12       30.02S
EAU CLAIRE     LGT RAIN  41  36  82 E6        30.01S
MENOMONIE      LGT RAIN  40  40  99 NE9       30.03S WCI  34
NEW RICHMOND   CLOUDY    42  33  70 E6        30.03R
OSCEOLA        CLOUDY    45  34  65 E5        30.06R
$$

WIZ003>005-009-010-017-018-282000-
NORTH CENTRAL WISCONSIN

CITY           SKY/WX    TMP DP  RH WIND       PRES   REMARKS
MANITOWISH WTR CLOUDY    49  20  31 CALM      30.02F
ARBOR VITAE    MOSUNNY   54  16  22 SE10G16   30.02F
WOODRUFF       MOSUNNY   54  16  22 SE10G16   30.02F
RHINELANDER    CLOUDY    52  18  26 SE14      30.02F
EAGLE RIVER    PTSUNNY   51  15  24 E8        30.03F
LAND O LAKES   MOSUNNY   53  15  22 SE9       30.03F
PHILLIPS       CLOUDY    48  20  32 E8G16     30.02F
TOMAHAWK       CLOUDY    50  19  28 E9        30.02S
MEDFORD        CLOUDY    46  25  43 SE9       30.00S
MERRILL        CLOUDY    48  25  40 E12       30.02S
$$

WIZ029-030-035-036-043>047-282000-
CENTRAL WISCONSIN

CITY           SKY/WX    TMP DP  RH WIND       PRES   REMARKS
WAUSAU         CLOUDY    47  27  45 E10       30.00F
MOSINEE        LGT RAIN  39  36  87 E8        30.03S WCI  34
MARSHFIELD     LGT RAIN  40  35  83 E17       30.00S WCI  31
STEVENS POINT  LGT RAIN  37  34  90 E10       30.03S WCI  29
WAUPACA        LGT RAIN  40  35  83 NE9       30.03S WCI  33
WAUTOMA        NOT AVBL
WISC RAPIDS    LGT RAIN  40  37  89 E14G20    30.02R WCI  32
CAMP DOUGLAS   LGT RAIN  41  41 100 E16       29.98S
$$

WIZ011>013-019>022-031-037>040-048>050-282000-
NORTHEAST WISCONSIN

CITY           SKY/WX    TMP DP  RH WIND       PRES   REMARKS
ANTIGO         CLOUDY    47  27  46 E13       30.02F
SHAWANO        CLOUDY    48  29  47 E7        30.05S
OCONTO         CLOUDY    46  29  53 E10       30.06R
STURGEON BAY   CLOUDY    45  27  49 NE9       30.08S
GREEN BAY      CLOUDY    44  29  55 NE8       30.04F
MANITOWOC      CLOUDY    45  30  55 MISG      30.04S
APPLETON       CLOUDY    41  30  65 NE12      30.01S
CLINTONVILLE   DRIZZLE   43  32  65 SE7       30.05S
OSHKOSH        CLOUDY    43  31  62 E17       30.01R
$$

WIZ032>034-041-042-053>061-282000-
SOUTHWEST WISCONSIN

CITY           SKY/WX    TMP DP  RH WIND       PRES   REMARKS
LA CROSSE      CLOUDY    43  35  73 E10G17    29.97R
SPARTA         LGT RAIN  40  38  93 E9        29.98S WCI  34
VIROQUA        CLOUDY    40  38  95 E12       29.94R WCI  33
BOSCOBEL       CLOUDY    46  39  76 NE8       29.93S
PRAIRIE DU CHI CLOUDY    46  38  74 NE10      29.92R
PLATTEVILLE    CLOUDY    46  42  88 E12       29.90S
$$

WIZ056-057-062-063-064-067-068-282000-
SOUTH CENTRAL WISCONSIN

CITY           SKY/WX    TMP DP  RH WIND       PRES   REMARKS
REEDSBURG      CLOUDY    39  38  95 NE9       29.96R WCI  33
BARABOO/DELLS  CLOUDY    39  37  91 E14G20    29.96S WCI  31
LONE ROCK      CLOUDY    44  39  82 E13       29.95R
MINERAL POINT  CLOUDY    45  41  87 NE13      29.91S
MADISON        CLOUDY    42  37  82 NE14      29.95R
MIDDLETON      CLOUDY    43  38  82 NE12G18   29.94S
WATERTOWN      CLOUDY    39  38  94 NE14      29.96R WCI  31
MONROE         CLOUDY    45  39  81 NE10G16   29.90S
JANESVILLE     CLOUDY    48  39  71 E12G17    29.91S
$$

WIZ051-052-058>065-066-070>072-282000-
SOUTHEAST WISCONSIN

CITY           SKY/WX    TMP DP  RH WIND       PRES   REMARKS
MILWAUKEE      CLOUDY    40  37  89 E15       29.96S WCI  32
WAUKESHA       CLOUDY    37  36  93 NE14      29.97S FOG     WCI  29
MILWAUKEE/TIMM CLOUDY    37  36  93 NE10G17   29.98S FOG     WCI  30
RACINE         CLOUDY    42  37  82 NE15      29.96F
BURLINGTON     CLOUDY    41  36  83 NE10      29.94R
KENOSHA        CLOUDY    43  37  79 E17       29.94S
FOND DU LAC    LGT RAIN  40  36  86 E15       30.00S WCI  32
SHEBOYGAN      CLOUDY    40  35  83 E17G25    30.02F WCI  31
WEST BEND      CLOUDY    37  36  93 E21       29.98S FOG     WCI  27
JUNEAU         CLOUDY    38  37  93 E15       29.98R WCI  30
$$

LSZ147-162-282000-
LAKE SUPERIOR

STATION/POSITION TIME  TEMP    WIND        PRES    WAVE
                       AIR SEA DIR/SP/G            HT/PER
                 (UTC) (F)     (DEG/KT/KT) (MB)    (FT/S)
W MID LAKE BUOY  1850   37 36   60/ 17/ 19 1021.3R   4/ 5
DEVILS ISLAND    1900   37      50/ 22/ 24 1021.0F
PORT WING        1901   40      40/ 21/ 26 1019.6
SAXON HARBOR     1840   39      40/ 15/ 18 1019.0R
$$

LMZ867-665-643>646-282000-
LAKE MICHIGAN

STATION/POSITION TIME  TEMP    WIND        PRES    WAVE
                       AIR SEA DIR/SP/G            HT/PER
                 (UTC) (F)     (DEG/KT/KT) (MB)    (FT/S)
CHAMBERS ISLAND  1800   42      20/  9/ 12 1018.6
N MID LAKE BUOY  1850   39 39   50/ 12/ 14 1018.5R   2/ 4
NORTHPORT PIER   1800   41      60/ 14/ 16 1018.3F
ALGOMA LAKESHORE 1815           50/ 14/ 16   N/A
KEWAUNEE LAKESHO 1800   41      30/ 10/ 15 1016.7F
SHEBOYGAN LAKESH 1900   39      80/ 25/ 28 1017.2F
PORT WASHINGTON  1800   40      70/ 18/ 21 1016.3F
S MID LAKE BUOY  1850   40 40   70/ 16/ 17 1014.0S   3/ 5
KENOSHA   LAKESH 1900   40      50/ 17/ 19 1013.9S
$$

TC  - TEMPERATURE IN CELSIUS
VSB - VISIBILITY IN STATUTE MILES
WCI - WIND CHILL INDEX
HX  - HEAT INDEX





USA.gov is the U.S. government's official web portal to all federal, state and local government web resources and services.